CDT,Max TemperatureF,Mean TemperatureF,Min TemperatureF,Max Dew PointF,MeanDew PointF,Min DewpointF,Max Humidity, Mean Humidity, Min Humidity, Max Sea Level PressureIn, Mean Sea Level PressureIn, Min Sea Level PressureIn, Max VisibilityMiles, Mean VisibilityMiles, Min VisibilityMiles, Max Wind SpeedMPH, Mean Wind SpeedMPH, Max Gust SpeedMPH,PrecipitationIn, CloudCover, Events, WindDirDegrees
2012-10-1,82,68,55,57,52,43,91,67,25,30.12,30.05,30.02,10,10,3,17,8,26,0.00,1,Rain-Thunderstorm,344
2012-10-2,80,67,54,56,53,50,89,67,36,30.15,30.05,29.92,10,10,10,10,6,16,0.00,0,,115
2012-10-3,93,72,50,57,50,39,94,61,15,29.95,29.91,29.86,10,10,0,9,2,,0.00,0,Fog,125
2012-10-4,78,66,54,51,46,40,77,53,27,30.24,30.10,29.95,10,10,5,20,6,28,0.00,0,,21
2012-10-5,86,69,52,59,53,50,91,66,28,30.14,30.05,29.93,10,10,10,15,4,20,0.00,0,,78
2012-10-6,64,58,49,59,49,37,92,75,59,30.23,30.11,29.98,10,9,1,21,10,26,0.00,6,,50
2012-10-7,55,50,44,39,36,32,81,62,52,30.31,30.24,30.14,10,10,10,14,7,16,0.00,7,,79
2012-10-8,70,56,43,49,44,39,84,71,46,30.22,30.12,29.97,10,10,10,12,2,,0.00,4,,80
2012-10-9,91,68,45,51,44,31,91,60,12,30.03,29.97,29.91,10,10,10,12,2,18,0.00,0,,209
2012-10-10,70,61,52,53,50,43,89,69,48,30.24,30.09,29.98,10,10,10,15,5,20,0.00,2,,31
2012-10-11,88,71,54,64,57,52,91,68,34,30.11,30.04,29.95,10,9,5,17,4,23,0.00,1,,88
2012-10-12,88,77,66,64,60,56,78,62,37,30.09,30.00,29.93,10,10,10,22,8,25,0.00,1,,122
2012-10-13,87,76,63,59,43,23,73,36,12,30.05,29.97,29.91,10,10,7,23,11,32,0.00,0,Thunderstorm,240
2012-10-14,79,62,45,41,36,28,66,37,22,30.27,30.17,30.07,10,10,10,9,5,,0.00,0,,77
2012-10-15,81,65,49,52,45,41,76,54,24,30.21,30.09,29.97,10,10,10,10,3,,0.00,0,,96
2012-10-16,85,73,62,55,49,39,69,47,23,29.97,29.85,29.76,10,10,10,20,6,24,0.00,0,,220
2012-10-17,91,70,50,49,38,27,73,35,10,29.85,29.78,29.74,10,10,10,26,9,33,0.04,0,,234
2012-10-18,78,65,52,42,38,33,61,42,21,30.08,29.96,29.84,10,10,10,10,7,,0.00,0,,20
2012-10-19,80,60,41,45,41,36,79,52,25,30.07,29.98,29.89,10,10,10,8,3,,0.00,0,,353
2012-10-20,90,68,45,50,44,38,76,49,20,29.91,29.85,29.77,10,10,10,10,3,,0.00,0,,217
2012-10-21,91,72,52,60,45,40,73,44,17,29.94,29.86,29.82,10,10,10,14,3,18,0.00,0,,242
2012-10-22,86,74,63,57,52,44,78,49,24,29.98,29.91,29.88,10,10,10,15,6,,0.00,0,Thunderstorm,182
2012-10-23,90,69,48,59,50,41,90,61,18,29.98,29.90,29.84,10,10,10,9,5,,0.00,0,,138
2012-10-24,93,73,53,60,53,37,94,60,21,29.91,29.83,29.73,10,10,7,8,3,,0.00,0,,24
2012-10-25,74,63,52,58,42,35,87,48,26,30.13,29.95,29.80,10,10,10,21,7,25,0.00,0,,16
2012-10-26,57,50,42,37,32,25,71,50,33,30.39,30.29,30.14,10,10,10,15,9,18,0.00,5,,41
2012-10-27,59,48,37,26,23,18,62,39,22,30.34,30.24,30.10,10,10,10,12,8,,0.00,4,,89
2012-10-28,68,51,34,36,29,24,73,49,27,30.25,30.17,30.09,10,10,10,8,5,,0.00,0,,65
2012-10-29,77,56,35,40,35,32,85,58,25,30.21,30.13,30.03,10,10,10,12,4,,0.00,0,,29
2012-10-30,80,58,38,38,34,30,83,54,17,30.10,30.03,29.98,10,10,10,9,4,,0.00,0,,360
2012-10-31,80,60,39,41,36,30,75,53,20,30.14,30.07,30.02,10,10,10,8,4,,0.00,0,,348